Satellite-Ground Cal/Val Region Overpasses Predictions

Prediction of Satellite NPP Overpassing Cal/Val Region: PacNW

Region Location: (Latitude: 10.00, Longitude: 139.50) to (Latitude: 22.70, Longitude: 165.60).

Table of predicted overpasses for the next 14.0 days since TLE Epoch: 12/2/2017
Interval Starting Time Starting Location Ending Time Ending Location
1 12/03/2017 02:20:43 ( 10.01, 164.55) 12/03/2017 02:24:19 ( 22.69, 161.53)
2 12/03/2017 14:52:36 ( 22.69, 161.78) 12/03/2017 14:56:12 ( 10.01, 158.76)
3 12/04/2017 03:43:11 ( 10.00, 143.93) 12/04/2017 03:46:47 ( 22.69, 140.92)
4 12/04/2017 14:34:40 ( 18.84, 165.59) 12/04/2017 14:37:10 ( 10.03, 163.52)
5 12/04/2017 16:15:05 ( 22.64, 141.15) 12/04/2017 16:17:00 ( 15.90, 139.51)
6 12/05/2017 03:24:09 ( 10.05, 148.68) 12/05/2017 03:27:44 ( 22.67, 145.68)
7 12/05/2017 15:56:02 ( 22.66, 145.91) 12/05/2017 15:59:37 ( 10.04, 142.91)
8 12/06/2017 03:05:07 ( 10.03, 153.44) 12/06/2017 03:08:42 ( 22.66, 150.44)
9 12/06/2017 15:37:00 ( 22.67, 150.67) 12/06/2017 15:40:35 ( 10.05, 147.67)
10 12/07/2017 02:46:04 ( 10.02, 158.20) 12/07/2017 02:49:39 ( 22.64, 155.20)
11 12/07/2017 15:17:57 ( 22.69, 155.43) 12/07/2017 15:21:33 ( 10.01, 152.42)
12 12/08/2017 02:27:02 ( 10.01, 162.96) 12/08/2017 02:30:38 ( 22.69, 159.95)
13 12/08/2017 14:58:55 ( 22.70, 160.19) 12/08/2017 15:02:31 ( 10.02, 157.18)
14 12/09/2017 02:10:35 ( 19.10, 165.59) 12/09/2017 02:11:36 ( 22.68, 164.71)
15 12/09/2017 03:49:30 ( 10.00, 142.35) 12/09/2017 03:52:54 ( 21.98, 139.51)
16 12/09/2017 14:39:53 ( 22.65, 164.94) 12/09/2017 14:43:28 ( 10.04, 161.94)
17 12/09/2017 16:21:23 ( 22.65, 139.56) 12/09/2017 16:21:27 ( 22.41, 139.51)
18 12/10/2017 03:30:28 ( 10.05, 147.10) 12/10/2017 03:34:03 ( 22.67, 144.10)
19 12/10/2017 16:02:21 ( 22.66, 144.33) 12/10/2017 16:05:56 ( 10.04, 141.33)
20 12/11/2017 03:11:26 ( 10.03, 151.86) 12/11/2017 03:15:01 ( 22.66, 148.86)
21 12/11/2017 15:43:18 ( 22.67, 149.09) 12/11/2017 15:46:53 ( 10.06, 146.09)
22 12/12/2017 02:52:23 ( 10.02, 156.62) 12/12/2017 02:55:58 ( 22.65, 153.62)
23 12/12/2017 15:24:16 ( 22.69, 153.85) 12/12/2017 15:27:52 ( 10.01, 150.84)
24 12/13/2017 02:33:21 ( 10.01, 161.38) 12/13/2017 02:36:57 ( 22.69, 158.36)
25 12/13/2017 15:05:13 ( 22.70, 158.61) 12/13/2017 15:08:49 ( 10.02, 155.60)
26 12/14/2017 02:14:59 ( 12.41, 165.59) 12/14/2017 02:17:54 ( 22.68, 163.13)
27 12/14/2017 03:55:48 ( 10.01, 140.76) 12/14/2017 03:57:20 ( 15.41, 139.51)
28 12/14/2017 14:46:12 ( 22.65, 163.36) 12/14/2017 14:49:47 ( 10.04, 160.36)
29 12/15/2017 03:36:47 ( 10.05, 145.51) 12/15/2017 03:40:22 ( 22.68, 142.51)
30 12/15/2017 14:30:09 ( 12.10, 165.59) 12/15/2017 14:30:44 ( 10.05, 165.12)
31 12/15/2017 16:08:39 ( 22.66, 142.74) 12/15/2017 16:12:14 ( 10.04, 139.74)
32 12/16/2017 03:17:44 ( 10.04, 150.27) 12/16/2017 03:21:19 ( 22.67, 147.27)


NCC Satellite Cal/Val Overpasses Prediction Service
